Location: Katowice
(50.2670°N, 19.0170°E)
Time: 14:31:42
(UTC+01:00)

Tiangong - Visible Passes

Search period start: 08 December 2022 00:00
Search period end: 18 December 2022 00:00
Orbit: 386 x 392 km, 41.5° (Epoch: 08 December)

Date Brightness Start Highest point End Pass type
(mag) Time Alt. Az. Time Alt. Az. Time Alt. Az.
08 Dec 0.5 16:48:53 10° SW 16:51:00 17° S 16:53:07 10° SE visible
09 Dec 0.8 17:27:54 10° SW 17:29:12 12° SSW 17:30:29 10° S visible
10 Dec 0.8 16:29:20 10° SW 16:31:10 14° SSW 16:33:00 10° SSE visible
